Retour au catalogue

ATLAS 5 CENTAUR DEB

ActifHEO
NORAD 49348·DEBRIS·🇺🇸 United States

Lancé Oct 17, 2018 depuis Cape Canaveral Space Force Station

Loading…

Prochains Passages (prochaines 24 heures)

TLE

PériméSource: Space-Track

Époque: Aug 15, 2026, 11:15 UTC

1 49348U 18079EZ  26227.46895759 -.00000125  00000-0  00000-0 0  9994
2 49348  13.2278 354.5501 4410335  48.1254 341.8787  2.01939869 36600

Suivez ATLAS 5 CENTAUR DEB en temps réel avec AllMySat

Download on the App Store